fra;semaine;nb_pos;nb_crib;tx_crib;nb_A0;nb_A1;tx_A1;nb_C0;nb_C1;tx_C1;nb_D0;nb_D1;tx_D1;nb_A0C0;nb_A01C01;tx_A0C0
FR;2021-11-01-2021-11-07;63922.00;844.00;1.32;806.00;0.00;0.00;19.00;788.00;97.65;30.00;3.00;9.09;19.00;806.00;2.36
FR;2021-11-02-2021-11-08;79330.00;1137.00;1.43;1095.00;0.00;0.00;23.00;1074.00;97.90;35.00;4.00;10.26;23.00;1095.00;2.10
FR;2021-11-03-2021-11-09;78612.00;1212.00;1.54;1166.00;0.00;0.00;25.00;1143.00;97.86;38.00;3.00;7.32;24.00;1166.00;2.06
FR;2021-11-04-2021-11-10;82428.00;1355.00;1.64;1301.00;0.00;0.00;35.00;1268.00;97.31;35.00;5.00;12.50;34.00;1301.00;2.61
FR;2021-11-05-2021-11-11;74749.00;1185.00;1.59;1140.00;0.00;0.00;34.00;1108.00;97.02;37.00;5.00;11.90;33.00;1140.00;2.89
FR;2021-11-06-2021-11-12;83753.00;1167.00;1.39;1124.00;0.00;0.00;39.00;1087.00;96.54;54.00;6.00;10.00;38.00;1124.00;3.38
FR;2021-11-07-2021-11-13;87423.00;1208.00;1.38;1161.00;0.00;0.00;39.00;1124.00;96.65;58.00;6.00;9.38;38.00;1161.00;3.27
FR;2021-11-08-2021-11-14;88513.00;1228.00;1.39;1180.00;0.00;0.00;39.00;1143.00;96.70;61.00;6.00;8.96;38.00;1180.00;3.22
FR;2021-11-09-2021-11-15;99377.00;1577.00;1.59;1509.00;0.00;0.00;43.00;1471.00;97.16;65.00;5.00;7.14;42.00;1508.00;2.79
FR;2021-11-10-2021-11-16;109323.00;2031.00;1.86;1948.00;0.00;0.00;40.00;1914.00;97.95;64.00;5.00;7.25;40.00;1947.00;2.05
FR;2021-11-11-2021-11-17;119122.00;2381.00;2.00;2289.00;0.00;0.00;29.00;2270.00;98.74;70.00;1.00;1.41;29.00;2288.00;1.27
FR;2021-11-12-2021-11-18;142059.00;2511.00;1.77;2405.00;0.00;0.00;34.00;2383.00;98.59;73.00;3.00;3.95;34.00;2404.00;1.41
FR;2021-11-13-2021-11-19;149758.00;2564.00;1.71;2448.00;0.00;0.00;36.00;2425.00;98.54;65.00;5.00;7.14;36.00;2446.00;1.47
FR;2021-11-14-2021-11-20;158133.00;2576.00;1.63;2463.00;0.00;0.00;37.00;2438.00;98.51;66.00;5.00;7.04;37.00;2460.00;1.50
FR;2021-11-15-2021-11-21;159809.00;2609.00;1.63;2483.00;0.00;0.00;39.00;2458.00;98.44;70.00;5.00;6.67;39.00;2480.00;1.57
FR;2021-11-16-2021-11-22;176136.00;3713.00;2.11;3390.00;10.00;0.29;79.00;3362.00;97.70;85.00;6.00;6.59;77.00;3396.00;2.27
FR;2021-11-17-2021-11-23;190872.00;3488.00;1.83;3113.00;11.00;0.35;89.00;3087.00;97.20;94.00;7.00;6.93;87.00;3120.00;2.79
FR;2021-11-18-2021-11-24;206759.00;3610.00;1.75;3150.00;12.00;0.38;114.00;3104.00;96.46;104.00;8.00;7.14;111.00;3154.00;3.52
FR;2021-11-19-2021-11-25;223500.00;4917.00;2.20;4267.00;12.00;0.28;166.00;4183.00;96.18;149.00;12.00;7.45;163.00;4266.00;3.82
FR;2021-11-20-2021-11-26;241076.00;7038.00;2.92;6078.00;14.00;0.23;215.00;5955.00;96.52;213.00;13.00;5.75;209.00;6075.00;3.44
FR;2021-11-21-2021-11-27;252616.00;8547.00;3.38;7386.00;19.00;0.26;288.00;7195.00;96.15;264.00;18.00;6.38;281.00;7380.00;3.81
FR;2021-11-22-2021-11-28;255638.00;9006.00;3.52;7758.00;19.00;0.24;312.00;7544.00;96.03;314.00;23.00;6.82;304.00;7752.00;3.92
FR;2021-11-23-2021-11-29;282253.00;16442.00;5.83;14379.00;60.00;0.42;513.00;14004.00;96.47;518.00;36.00;6.50;502.00;14411.00;3.48
FR;2021-11-24-2021-11-30;303497.00;27170.00;8.95;23902.00;69.00;0.29;801.00;23289.00;96.67;887.00;48.00;5.13;789.00;23938.00;3.30
FR;2021-11-25-2021-12-01;322487.00;38930.00;12.07;34374.00;86.00;0.25;1010.00;33636.00;97.08;1269.00;68.00;5.09;997.00;34429.00;2.90
FR;2021-11-26-2021-12-02;342943.00;51306.00;14.96;45336.00;97.00;0.21;1222.00;44461.00;97.33;2197.00;106.00;4.60;1208.00;45405.00;2.66
FR;2021-11-27-2021-12-03;361702.00;63758.00;17.63;56344.00;104.00;0.18;1468.00;55299.00;97.41;3237.00;146.00;4.32;1456.00;56419.00;2.58
FR;2021-11-28-2021-12-04;373003.00;70238.00;18.83;61995.00;107.00;0.17;1571.00;60907.00;97.49;3792.00;159.00;4.02;1558.00;62078.00;2.51
FR;2021-11-29-2021-12-05;375633.00;71858.00;19.13;63366.00;109.00;0.17;1594.00;62265.00;97.50;4049.00;165.00;3.92;1582.00;63449.00;2.49
FR;2021-11-30-2021-12-06;395660.00;82893.00;20.95;73221.00;83.00;0.11;1867.00;71919.00;97.47;5381.00;213.00;3.81;1852.00;73270.00;2.53
FR;2021-12-01-2021-12-07;409166.00;89332.00;21.83;79061.00;118.00;0.15;2168.00;77552.00;97.28;6485.00;252.00;3.74;2151.00;79140.00;2.72
FR;2021-12-02-2021-12-08;419635.00;93246.00;22.22;82457.00;131.00;0.16;2483.00;80660.00;97.01;7375.00;305.00;3.97;2461.00;82535.00;2.98
FR;2021-12-03-2021-12-09;425720.00;97161.00;22.82;85985.00;159.00;0.18;2858.00;83883.00;96.71;7668.00;363.00;4.52;2823.00;86083.00;3.28
FR;2021-12-04-2021-12-10;429232.00;99957.00;23.29;88569.00;173.00;0.19;3192.00;86170.00;96.43;7946.00;400.00;4.79;3147.00;88676.00;3.55
FR;2021-12-05-2021-12-11;431173.00;101798.00;23.61;90270.00;175.00;0.19;3495.00;87558.00;96.16;8221.00;439.00;5.07;3444.00;90373.00;3.81
FR;2021-12-06-2021-12-12;432585.00;102128.00;23.61;90602.00;175.00;0.19;3611.00;87783.00;96.05;8284.00;452.00;5.17;3556.00;90707.00;3.92
FR;2021-12-07-2021-12-13;440158.00;108818.00;24.72;96287.00;207.00;0.21;4831.00;92271.00;95.02;8654.00;629.00;6.78;4755.00;96398.00;4.93
FR;2021-12-08-2021-12-14;446124.00;116415.00;26.09;102566.00;250.00;0.24;6573.00;97043.00;93.66;9037.00;882.00;8.89;6426.00;102683.00;6.26
FR;2021-12-09-2021-12-15;453528.00;124632.00;27.48;109657.00;291.00;0.26;8887.00;102187.00;92.00;10045.00;1171.00;10.44;8656.00;109796.00;7.88
FR;2021-12-10-2021-12-16;460783.00;131703.00;28.58;115803.00;291.00;0.25;11425.00;106063.00;90.28;11103.00;1432.00;11.42;11117.00;115920.00;9.59
FR;2021-12-11-2021-12-17;470522.00;139839.00;29.72;122920.00;397.00;0.32;14520.00;110459.00;88.38;12252.00;1776.00;12.66;14061.00;123097.00;11.42
FR;2021-12-12-2021-12-18;478255.00;145213.00;30.36;127799.00;460.00;0.36;16710.00;113445.00;87.16;12881.00;2076.00;13.88;16125.00;128032.00;12.59
FR;2021-12-13-2021-12-19;482553.00;147161.00;30.50;129447.00;472.00;0.36;17636.00;114316.00;86.63;13350.00;2354.00;14.99;16978.00;129681.00;13.09
FR;2021-12-14-2021-12-20;500575.00;165588.00;33.08;146432.00;592.00;0.40;26647.00;123150.00;82.21;15064.00;3865.00;20.42;25613.00;146739.00;17.45
FR;2021-12-15-2021-12-21;532758.00;189590.00;35.59;168045.00;770.00;0.46;42102.00;130099.00;75.55;16489.00;7040.00;29.92;40554.00;168472.00;24.07
FR;2021-12-16-2021-12-22;578627.00;217591.00;37.60;193161.00;1005.00;0.52;61761.00;136302.00;68.82;18476.00;12302.00;39.97;59559.00;193748.00;30.74
FR;2021-12-17-2021-12-23;640946.00;249291.00;38.89;221814.00;1227.00;0.55;84808.00;143006.00;62.77;22556.00;20874.00;48.06;81875.00;222621.00;36.78
FR;2021-12-18-2021-12-24;693542.00;266900.00;38.48;237703.00;1412.00;0.59;103037.00;141542.00;57.87;26495.00;30553.00;53.56;99283.00;238693.00;41.59
FR;2021-12-19-2021-12-25;663073.00;257069.00;38.77;228631.00;1375.00;0.60;103457.00;132123.00;56.08;26019.00;32048.00;55.19;99477.00;229584.00;43.33
FR;2021-12-20-2021-12-26;686645.00;263878.00;38.43;234382.00;1479.00;0.63;109288.00;132638.00;54.83;26829.00;35895.00;57.23;104685.00;235388.00;44.47
FR;2021-12-21-2021-12-27;858447.00;334229.00;38.93;297639.00;1990.00;0.66;169922.00;137484.00;44.72;39090.00;71183.00;64.55;163217.00;299036.00;54.58
FR;2021-12-22-2021-12-28;1018677.00;394736.00;38.75;352748.00;1997.00;0.56;228173.00;135795.00;37.31;48606.00;110836.00;69.51;219989.00;354075.00;62.13
FR;2021-12-23-2021-12-29;1181898.00;456800.00;38.65;408401.00;1814.00;0.44;288815.00;132927.00;31.52;56561.00;155110.00;73.28;278580.00;409589.00;68.01
FR;2021-12-24-2021-12-30;1343964.00;516250.00;38.41;459798.00;1791.00;0.39;347340.00;128134.00;26.95;61583.00;196541.00;76.14;334722.00;460946.00;72.62
FR;2021-12-25-2021-12-31;1477695.00;556168.00;37.64;494352.00;1682.00;0.34;387613.00;123711.00;24.19;63538.00;226265.00;78.08;373785.00;495408.00;75.45
FR;2021-12-26-2022-01-01;1492356.00;559326.00;37.48;496589.00;1655.00;0.33;390779.00;123085.00;23.95;63531.00;228672.00;78.26;376653.00;497626.00;75.69
FR;2021-12-27-2022-01-02;1531805.00;567424.00;37.04;502786.00;1627.00;0.32;398677.00;122225.00;23.46;63689.00;234715.00;78.66;383781.00;503846.00;76.17
FR;2021-12-28-2022-01-03;1775584.00;606446.00;34.15;532129.00;1476.00;0.28;445904.00;105568.00;19.14;60086.00;272625.00;81.94;429735.00;533182.00;80.60
FR;2021-12-29-2022-01-04;1932438.00;622055.00;32.19;538734.00;1933.00;0.36;466185.00;91917.00;16.47;55488.00;294157.00;84.13;449862.00;540390.00;83.25
FR;2021-12-30-2022-01-05;2032819.00;609875.00;30.00;522278.00;2171.00;0.41;462496.00;77411.00;14.34;49764.00;296250.00;85.62;447646.00;524201.00;85.40
FR;2021-12-31-2022-01-06;2094356.00;577551.00;27.58;487576.00;2062.00;0.42;440320.00;61935.00;12.33;43215.00;288923.00;86.99;427949.00;489414.00;87.44
FR;2022-01-01-2022-01-07;2213130.00;572658.00;25.88;477262.00;1997.00;0.42;436643.00;53388.00;10.89;39280.00;290328.00;88.08;425878.00;479059.00;88.90
FR;2022-01-02-2022-01-08;2462879.00;603810.00;24.52;502044.00;2120.00;0.42;460184.00;54399.00;10.57;40382.00;309371.00;88.45;449673.00;503966.00;89.23
FR;2022-01-03-2022-01-09;2481880.00;595638.00;24.00;493872.00;2056.00;0.41;452678.00;52387.00;10.37;39127.00;306228.00;88.67;443384.00;495727.00;89.44
FR;2022-01-04-2022-01-10;2521014.00;537551.00;21.32;440439.00;1903.00;0.43;410707.00;37533.00;8.37;30885.00;290213.00;90.38;404233.00;442170.00;91.42
FR;2022-01-05-2022-01-11;2523013.00;488109.00;19.35;398509.00;1311.00;0.33;375560.00;28977.00;7.16;25676.00;273222.00;91.41;370514.00;399668.00;92.71
FR;2022-01-06-2022-01-12;2575211.00;457629.00;17.77;374111.00;1216.00;0.32;356244.00;23188.00;6.11;21596.00;272188.00;92.65;351691.00;375188.00;93.74
FR;2022-01-07-2022-01-13;2605519.00;446450.00;17.13;367888.00;1283.00;0.35;353674.00;19643.00;5.26;19054.00;283583.00;93.70;348867.00;369025.00;94.54
FR;2022-01-08-2022-01-14;2654088.00;445153.00;16.77;369349.00;1367.00;0.37;362067.00;16504.00;4.36;16755.00;300236.00;94.71;353402.00;370573.00;95.37
FR;2022-01-09-2022-01-15;2703161.00;449868.00;16.64;373105.00;1360.00;0.36;370724.00;15158.00;3.93;15703.00;310024.00;95.18;358456.00;374311.00;95.76
FR;2022-01-10-2022-01-16;2730444.00;451992.00;16.55;374466.00;1379.00;0.37;374942.00;14885.00;3.82;15403.00;313133.00;95.31;360113.00;375698.00;95.85
FR;2022-01-11-2022-01-17;2843986.00;477667.00;16.80;398110.00;1359.00;0.34;406968.00;12742.00;3.04;14041.00;354128.00;96.19;385886.00;399333.00;96.63
FR;2022-01-12-2022-01-18;2941419.00;503220.00;17.11;420146.00;1439.00;0.34;435732.00;10976.00;2.46;12796.00;391350.00;96.83;409619.00;421393.00;97.21
FR;2022-01-13-2022-01-19;3038820.00;529379.00;17.42;440471.00;1447.00;0.33;461909.00;9817.00;2.08;12000.00;423764.00;97.25;431099.00;441741.00;97.59
FR;2022-01-14-2022-01-20;3126755.00;551934.00;17.65;459311.00;1663.00;0.36;486497.00;8833.00;1.78;11069.00;451108.00;97.61;450938.00;460816.00;97.86
FR;2022-01-15-2022-01-21;3201498.00;567704.00;17.73;473109.00;1506.00;0.32;502192.00;7780.00;1.53;10202.00;472524.00;97.89;465745.00;474464.00;98.16
FR;2022-01-16-2022-01-22;3255391.00;574934.00;17.66;479447.00;1399.00;0.29;509629.00;7287.00;1.41;9746.00;483657.00;98.02;472547.00;480697.00;98.30
FR;2022-01-17-2022-01-23;3266282.00;576350.00;17.65;480743.00;1359.00;0.28;510895.00;7201.00;1.39;9646.00;486060.00;98.05;473912.00;481953.00;98.33
FR;2022-01-18-2022-01-24;3333972.00;592027.00;17.76;494421.00;1304.00;0.26;525824.00;5953.00;1.12;8745.00;509296.00;98.31;488728.00;495560.00;98.62
FR;2022-01-19-2022-01-25;3321320.00;593024.00;17.86;496082.00;1355.00;0.27;527731.00;5214.00;0.98;8137.00;515657.00;98.45;491103.00;497308.00;98.75
FR;2022-01-20-2022-01-26;3288675.00;588850.00;17.91;493326.00;1299.00;0.26;525673.00;4544.00;0.86;7507.00;516359.00;98.57;488950.00;494486.00;98.88
FR;2022-01-21-2022-01-27;3239902.00;580577.00;17.92;487284.00;1018.00;0.21;519441.00;3857.00;0.74;6903.00;512743.00;98.67;483561.00;488173.00;99.06
FR;2022-01-22-2022-01-28;3180035.00;573567.00;18.04;481743.00;995.00;0.21;514019.00;3357.00;0.65;6347.00;510533.00;98.77;478479.00;482612.00;99.14
FR;2022-01-23-2022-01-29;3125788.00;570541.00;18.25;479792.00;1110.00;0.23;511838.00;3054.00;0.59;6122.00;509779.00;98.81;476838.00;480786.00;99.18
FR;2022-01-24-2022-01-30;3100256.00;568769.00;18.35;478572.00;1166.00;0.24;510443.00;2961.00;0.58;6041.00;508912.00;98.83;475706.00;479628.00;99.18
FR;2022-01-25-2022-01-31;2957448.00;546985.00;18.50;459352.00;1049.00;0.23;490602.00;2529.00;0.51;5205.00;490485.00;98.95;456971.00;460313.00;99.27
FR;2022-01-26-2022-02-01;2836532.00;525117.00;18.51;440939.00;901.00;0.20;471770.00;2107.00;0.44;4775.00;472242.00;99.00;438951.00;441749.00;99.37
FR;2022-01-27-2022-02-02;2705842.00;503116.00;18.59;423323.00;882.00;0.21;452740.00;1828.00;0.40;4331.00;453283.00;99.05;421539.00;424051.00;99.41
FR;2022-01-28-2022-02-03;2573559.00;479827.00;18.64;404376.00;927.00;0.23;432185.00;1662.00;0.38;4018.00;433155.00;99.08;402687.00;405085.00;99.41
FR;2022-01-29-2022-02-04;2427677.00;452808.00;18.65;382272.00;957.00;0.25;407933.00;1464.00;0.36;3742.00;409395.00;99.09;380636.00;382866.00;99.42
FR;2022-01-30-2022-02-05;2310866.00;437778.00;18.94;370431.00;969.00;0.26;394392.00;1414.00;0.36;3694.00;396358.00;99.08;368855.00;371042.00;99.41
FR;2022-01-31-2022-02-06;2264500.00;433170.00;19.13;367532.00;931.00;0.25;390464.00;1410.00;0.36;3713.00;392301.00;99.06;365947.00;368101.00;99.41
FR;2022-02-01-2022-02-07;2021240.00;393333.00;19.46;336267.00;857.00;0.25;356121.00;1183.00;0.33;3500.00;357936.00;99.03;334769.00;336686.00;99.43
FR;2022-02-02-2022-02-08;1850535.00;361446.00;19.53;309774.00;885.00;0.28;327095.00;1103.00;0.34;3188.00;329697.00;99.04;308303.00;310172.00;99.40
FR;2022-02-03-2022-02-09;1689319.00;333406.00;19.74;285970.00;853.00;0.30;301442.00;954.00;0.32;3050.00;304588.00;99.01;284717.00;286412.00;99.41
FR;2022-02-04-2022-02-10;1559265.00;308216.00;19.77;264246.00;749.00;0.28;278340.00;837.00;0.30;2892.00;281587.00;98.98;263157.00;264647.00;99.44
FR;2022-02-05-2022-02-11;1432491.00;286098.00;19.97;245198.00;695.00;0.28;258134.00;737.00;0.28;2668.00;261516.00;98.99;244335.00;245693.00;99.45
FR;2022-02-06-2022-02-12;1338641.00;273586.00;20.44;234881.00;559.00;0.24;246714.00;672.00;0.27;2487.00;249789.00;99.01;234051.00;235240.00;99.49
FR;2022-02-07-2022-02-13;1310717.00;270912.00;20.67;233053.00;543.00;0.23;244215.00;644.00;0.26;2435.00;247228.00;99.02;232255.00;233400.00;99.51
FR;2022-02-08-2022-02-14;1152035.00;241429.00;20.96;207073.00;519.00;0.25;217211.00;441.00;0.20;2087.00;219565.00;99.06;206488.00;207412.00;99.55
FR;2022-02-09-2022-02-15;1058938.00;223010.00;21.06;190955.00;458.00;0.24;200450.00;354.00;0.18;1958.00;202283.00;99.04;190457.00;191225.00;99.60
FR;2022-02-10-2022-02-16;972805.00;207109.00;21.29;177387.00;397.00;0.22;186294.00;350.00;0.19;1831.00;187801.00;99.03;176893.00;177599.00;99.60
FR;2022-02-11-2022-02-17;908343.00;193576.00;21.31;165705.00;380.00;0.23;174022.00;316.00;0.18;1790.00;175189.00;98.99;165247.00;165901.00;99.61
FR;2022-02-12-2022-02-18;842449.00;181423.00;21.54;155548.00;422.00;0.27;163455.00;289.00;0.18;1763.00;164230.00;98.94;155109.00;155780.00;99.57
FR;2022-02-13-2022-02-19;799422.00;175528.00;21.96;150653.00;442.00;0.29;158281.00;267.00;0.17;1730.00;159130.00;98.92;150239.00;150906.00;99.56
FR;2022-02-14-2022-02-20;786220.00;173925.00;22.12;149356.00;446.00;0.30;156876.00;260.00;0.17;1740.00;157646.00;98.91;148948.00;149611.00;99.56
FR;2022-02-15-2022-02-21;715668.00;160209.00;22.39;137827.00;432.00;0.31;144842.00;238.00;0.16;1702.00;145107.00;98.84;137506.00;138139.00;99.54
FR;2022-02-16-2022-02-22;673410.00;151319.00;22.47;130369.00;353.00;0.27;137084.00;194.00;0.14;1581.00;137097.00;98.86;130167.00;130690.00;99.60
FR;2022-02-17-2022-02-23;635251.00;143945.00;22.66;124429.00;286.00;0.23;130728.00;155.00;0.12;1512.00;130482.00;98.85;124262.00;124680.00;99.66
FR;2022-02-18-2022-02-24;604140.00;136987.00;22.67;118537.00;306.00;0.26;124556.00;154.00;0.12;1414.00;124217.00;98.87;118373.00;118809.00;99.63
FR;2022-02-19-2022-02-25;572354.00;130054.00;22.72;112632.00;283.00;0.25;118368.00;218.00;0.18;1383.00;117889.00;98.84;112410.00;112889.00;99.58
FR;2022-02-20-2022-02-26;549047.00;125488.00;22.86;109015.00;279.00;0.26;114469.00;223.00;0.19;1385.00;113930.00;98.80;108783.00;109264.00;99.56
FR;2022-02-21-2022-02-27;543311.00;124653.00;22.94;108455.00;287.00;0.26;113730.00;220.00;0.19;1391.00;113183.00;98.79;108225.00;108713.00;99.55
FR;2022-02-22-2022-02-28;515843.00;117718.00;22.82;102374.00;308.00;0.30;107522.00;217.00;0.20;1303.00;107000.00;98.80;102132.00;102634.00;99.51
FR;2022-02-23-2022-03-01;499991.00;113827.00;22.77;98875.00;413.00;0.42;104092.00;217.00;0.21;1335.00;103455.00;98.73;98639.00;99242.00;99.39
FR;2022-02-24-2022-03-02;489241.00;111607.00;22.81;96873.00;496.00;0.51;102012.00;265.00;0.26;1320.00;101417.00;98.72;96607.00;97328.00;99.26
FR;2022-02-25-2022-03-03;485212.00;110979.00;22.87;96265.00;512.00;0.53;101511.00;313.00;0.31;1326.00;100894.00;98.70;95992.00;96736.00;99.23
FR;2022-02-26-2022-03-04;480364.00;110321.00;22.97;95780.00;542.00;0.56;101061.00;254.00;0.25;1414.00;100193.00;98.61;95570.00;96276.00;99.27
FR;2022-02-27-2022-03-05;481485.00;110882.00;23.03;96341.00;561.00;0.58;101626.00;267.00;0.26;1403.00;100724.00;98.63;96118.00;96854.00;99.24
FR;2022-02-28-2022-03-06;482777.00;110942.00;22.98;96340.00;550.00;0.57;101711.00;267.00;0.26;1389.00;100811.00;98.64;96116.00;96841.00;99.25
FR;2022-03-01-2022-03-07;495457.00;113748.00;22.96;98831.00;655.00;0.66;104451.00;351.00;0.33;1471.00;103453.00;98.60;98596.00;99455.00;99.14
FR;2022-03-02-2022-03-08;507525.00;116304.00;22.92;101246.00;612.00;0.60;106984.00;344.00;0.32;1494.00;105878.00;98.61;101012.00;101826.00;99.20
FR;2022-03-03-2022-03-09;523113.00;119592.00;22.86;104273.00;550.00;0.52;110309.00;312.00;0.28;1574.00;109000.00;98.58;104056.00;104779.00;99.31
FR;2022-03-04-2022-03-10;539500.00;122910.00;22.78;107307.00;533.00;0.49;113653.00;259.00;0.23;1656.00;112121.00;98.54;107107.00;107795.00;99.36
FR;2022-03-05-2022-03-11;560138.00;126918.00;22.66;110807.00;501.00;0.45;117460.00;267.00;0.23;1656.00;115915.00;98.59;110598.00;111266.00;99.40
FR;2022-03-06-2022-03-12;578986.00;130483.00;22.54;113889.00;465.00;0.41;120963.00;252.00;0.21;1750.00;119281.00;98.55;113695.00;114315.00;99.46
FR;2022-03-07-2022-03-13;583980.00;131464.00;22.51;114546.00;474.00;0.41;121944.00;267.00;0.22;1809.00;120200.00;98.52;114347.00;114983.00;99.45
FR;2022-03-08-2022-03-14;631213.00;142729.00;22.61;124504.00;433.00;0.35;132525.00;299.00;0.23;2069.00;130397.00;98.44;124262.00;124900.00;99.49
FR;2022-03-09-2022-03-15;664481.00;151672.00;22.83;132736.00;466.00;0.35;140963.00;331.00;0.23;2318.00;138519.00;98.35;132463.00;133159.00;99.48
FR;2022-03-10-2022-03-16;700689.00;162004.00;23.12;142257.00;443.00;0.31;150830.00;346.00;0.23;2449.00;147978.00;98.37;141979.00;142670.00;99.52
FR;2022-03-11-2022-03-17;736109.00;175480.00;23.84;154778.00;440.00;0.28;163791.00;362.00;0.22;2552.00;160499.00;98.43;154477.00;155188.00;99.54
FR;2022-03-12-2022-03-18;776249.00;192265.00;24.77;170390.00;486.00;0.28;179877.00;372.00;0.21;2780.00;175803.00;98.44;170084.00;170845.00;99.55
FR;2022-03-13-2022-03-19;806919.00;202622.00;25.11;179483.00;642.00;0.36;189683.00;447.00;0.24;2971.00;185225.00;98.42;179163.00;180096.00;99.48
FR;2022-03-14-2022-03-20;814354.00;204843.00;25.15;181324.00;680.00;0.37;191803.00;436.00;0.23;2984.00;187326.00;98.43;181008.00;181975.00;99.47
FR;2022-03-15-2022-03-21;898588.00;241050.00;26.83;214973.00;604.00;0.28;226884.00;419.00;0.18;3460.00;220716.00;98.46;214633.00;215550.00;99.57
FR;2022-03-16-2022-03-22;963037.00;270854.00;28.12;244016.00;665.00;0.27;255470.00;472.00;0.18;3940.00;248211.00;98.44;243609.00;244641.00;99.58
FR;2022-03-17-2022-03-23;1030188.00;301138.00;29.23;274141.00;770.00;0.28;284520.00;554.00;0.19;4450.00;276269.00;98.41;273653.00;274867.00;99.56
FR;2022-03-18-2022-03-24;1089238.00;326827.00;30.01;299965.00;881.00;0.29;309119.00;595.00;0.19;4968.00;299976.00;98.37;299436.00;300795.00;99.55
FR;2022-03-19-2022-03-25;1147781.00;348395.00;30.35;321637.00;906.00;0.28;329619.00;604.00;0.18;5449.00;320058.00;98.33;321091.00;322491.00;99.57
FR;2022-03-20-2022-03-26;1188288.00;358569.00;30.18;332717.00;841.00;0.25;339212.00;557.00;0.16;5753.00;329441.00;98.28;332148.00;333496.00;99.60
FR;2022-03-21-2022-03-27;1195260.00;360640.00;30.17;335620.00;798.00;0.24;341157.00;565.00;0.17;5764.00;331387.00;98.29;335043.00;336357.00;99.61
FR;2022-03-22-2022-03-28;1257457.00;381525.00;30.34;358163.00;973.00;0.27;360912.00;571.00;0.16;6258.00;351574.00;98.25;357582.00;359068.00;99.59
FR;2022-03-23-2022-03-29;1294777.00;392965.00;30.35;369253.00;1007.00;0.27;371681.00;571.00;0.15;6345.00;362844.00;98.28;368674.00;370197.00;99.59
FR;2022-03-24-2022-03-30;1317507.00;398923.00;30.28;374650.00;903.00;0.24;376903.00;578.00;0.15;6648.00;368502.00;98.23;374042.00;375482.00;99.62
FR;2022-03-25-2022-03-31;1326813.00;401257.00;30.24;376211.00;824.00;0.22;378452.00;575.00;0.15;6778.00;370661.00;98.20;375599.00;376960.00;99.64
FR;2022-03-26-2022-04-01;1322339.00;398598.00;30.14;373374.00;822.00;0.22;375647.00;580.00;0.15;6607.00;368471.00;98.24;372755.00;374123.00;99.63
FR;2022-03-27-2022-04-02;1317073.00;398048.00;30.22;372915.00;735.00;0.20;375103.00;581.00;0.15;6527.00;368092.00;98.26;372298.00;373580.00;99.66
FR;2022-03-28-2022-04-03;1314831.00;397988.00;30.27;372805.00;734.00;0.20;375005.00;586.00;0.16;6583.00;367940.00;98.24;372174.00;373460.00;99.66
FR;2022-03-29-2022-04-04;1299134.00;392310.00;30.20;367148.00;526.00;0.14;369161.00;605.00;0.16;6508.00;362421.00;98.24;366490.00;367598.00;99.70
FR;2022-03-30-2022-04-05;1286453.00;388498.00;30.20;363316.00;429.00;0.12;365205.00;631.00;0.17;6617.00;358434.00;98.19;362634.00;363671.00;99.71
FR;2022-03-31-2022-04-06;1275601.00;385156.00;30.19;360155.00;413.00;0.11;362100.00;601.00;0.17;6412.00;355509.00;98.23;359511.00;360497.00;99.73
FR;2022-04-01-2022-04-07;1273469.00;384147.00;30.17;359278.00;334.00;0.09;361118.00;656.00;0.18;6283.00;354690.00;98.26;358565.00;359534.00;99.73
FR;2022-04-02-2022-04-08;1279863.00;386604.00;30.21;361545.00;375.00;0.10;363351.00;770.00;0.21;6347.00;357033.00;98.25;360727.00;361840.00;99.69
FR;2022-04-03-2022-04-09;1283097.00;385858.00;30.07;360725.00;390.00;0.11;362514.00;792.00;0.22;6265.00;356299.00;98.27;359887.00;361028.00;99.68
FR;2022-04-04-2022-04-10;1280300.00;385032.00;30.07;359998.00;388.00;0.11;361786.00;793.00;0.22;6173.00;355630.00;98.29;359168.00;360307.00;99.68
FR;2022-04-05-2022-04-11;1258168.00;379923.00;30.20;355251.00;372.00;0.10;357010.00;796.00;0.22;6016.00;351107.00;98.32;354432.00;355549.00;99.69
FR;2022-04-06-2022-04-12;1239416.00;373569.00;30.14;349663.00;342.00;0.10;351383.00;773.00;0.22;5804.00;345739.00;98.35;348869.00;349929.00;99.70
FR;2022-04-07-2022-04-13;1213900.00;365150.00;30.08;341648.00;341.00;0.10;343316.00;831.00;0.24;5651.00;338113.00;98.36;340799.00;341918.00;99.67
FR;2022-04-08-2022-04-14;1188227.00;356758.00;30.02;333868.00;347.00;0.10;335585.00;768.00;0.23;5472.00;330607.00;98.37;333097.00;334155.00;99.68
FR;2022-04-09-2022-04-15;1155935.00;344009.00;29.76;322032.00;228.00;0.07;323649.00;695.00;0.21;5203.00;318985.00;98.40;321332.00;322203.00;99.73
FR;2022-04-10-2022-04-16;1134299.00;340171.00;29.99;318445.00;229.00;0.07;320045.00;672.00;0.21;5095.00;315484.00;98.41;317769.00;318625.00;99.73
FR;2022-04-11-2022-04-17;1126675.00;338216.00;30.02;316608.00;222.00;0.07;318187.00;670.00;0.21;5071.00;313646.00;98.41;315932.00;316780.00;99.73
FR;2022-04-12-2022-04-18;885353.00;260251.00;29.40;243102.00;190.00;0.08;244508.00;534.00;0.22;3853.00;241211.00;98.43;242547.00;243241.00;99.71
FR;2022-04-13-2022-04-19;929292.00;272928.00;29.37;254479.00;166.00;0.07;255836.00;635.00;0.25;3968.00;252673.00;98.45;253828.00;254600.00;99.70
FR;2022-04-14-2022-04-20;879651.00;259906.00;29.55;242044.00;178.00;0.07;243356.00;625.00;0.26;3742.00;240398.00;98.47;241408.00;242172.00;99.68
FR;2022-04-15-2022-04-21;830296.00;243548.00;29.33;226735.00;173.00;0.08;227900.00;659.00;0.29;3611.00;225155.00;98.42;226065.00;226862.00;99.65
FR;2022-04-16-2022-04-22;777882.00;231233.00;29.73;215163.00;153.00;0.07;216258.00;643.00;0.30;3501.00;213606.00;98.39;214498.00;215264.00;99.64